Regional Weather Roundup
Issued by NWS Jackson, KY

Home | Current Version | Previous Version | Text Only | Print | Product List | Glossary Off
Versions: 1 2 3 4 5 6 7 8 9 10 11 12 13 14 15 16 17 18 19 20 21 22 23 24 25 26 27 28 29 30 31 32 33 34 35 36 37 38 39 40 41 42 43 44 45 46 47 48 49 50

000
ASUS43 KJKL 310610
RWRJKL

EAST KENTUCKY HOURLY WEATHER ROUNDUP
NATIONAL WEATHER SERVICE JACKSON KY
200 AM EDT MON AUG 31 2015

NOTE: "FAIR" INDICATES FEW OR NO CLOUDS BELOW 12,000 FEET WITH
NO SIGNIFICANT WEATHER AND/OR OBSTRUCTIONS TO VISIBILITY.

* THESE REPORTS ARE NOT UNDER NWS QUALITY CONTROL AND MAY NOT
  REPORT WEATHER SUCH AS PRECIPITATION AND FOG.

KYZ079-080-083-085-087-088-110-112-115-119-120-310700
...EASTERN KENTUCKY...

CITY           SKY/WX    TMP DP  RH WIND       PRES   REMARKS
JACKSON          N/A     72  64  76 CALM      30.13F
6HR MIN TEMP:  70; 6HR MAX TEMP:  76;

LONDON           N/A     70  64  81 CALM      30.13S
6HR MIN TEMP:  70; 6HR MAX TEMP:  77; 6HR PCP: TRACE;

SOMERSET*        N/A     64  64 100 CALM      30.13S
MONTICELLO*      N/A     62  62 100 CALM      30.14S FOG
6HR MIN TEMP:  62; 6HR MAX TEMP:  74;

WILLIAMSBURG*  MOCLDY    64  64 100 CALM      30.13
MIDDLESBORO*   CLOUDY    67  67  98 CALM      30.13F
6HR MIN TEMP:  67; 6HR MAX TEMP:  73;

HAZARD APT*    CLEAR     68  68 100 CALM      30.12F FOG
BLACK MTN*       N/A     61  59  94 S1          N/A
PIKEVILLE APT* CLEAR     70  66  88 CALM      30.13F
BIG SANDY*       N/A     67  67  99 CALM      30.13S FOG
6HR MIN TEMP:  67; 6HR MAX TEMP:  75;

MOREHEAD APT*    N/A     68  66  94 CALM      30.13F
$$

KYZ035-036-041-042-044-050-067-078-099-310700
...CENTRAL KENTUCKY...

CITY           SKY/WX    TMP DP  RH WIND       PRES   REMARKS
MT STERLING*     N/A     64  64 100 SW3       30.13S
FLEMING/MASON* CLEAR     68  64  88 S5        30.12S
DANVILLE*        N/A     63  63 100 CALM      30.12F
RICHMOND*        N/A     64  63  94 CALM      30.11F
LEXINGTON      MOCLDY    70  65  84 S6        30.11S
6HR MIN TEMP:  69; 6HR MAX TEMP:  77; 6HR PCP: TRACE;

FRANKFORT      MOCLDY    69  66  90 CALM      30.09S
6HR MIN TEMP:  69; 6HR MAX TEMP:  73;

$$

KYZ091>093-OHZ055-061-077-WVZ005-015-034-035-042-310700
...SOUTHERN OHIO/WEST VIRGINIA...

CITY           SKY/WX    TMP DP  RH WIND       PRES   REMARKS
COVINGTON        N/A     70  66  87 SW3       30.09S
COLUMBUS         N/A     70  66  87 CALM      30.08F
DAYTON           N/A     69  66  90 S6        30.09F
WILMINGTON       N/A     68  64  87 CALM      30.10S
HUNTINGTON       N/A     67  66  97 CALM      30.10S
CHARLESTON     MOCLDY    67  66  97 CALM      30.11F FOG
PINEVILLE*       N/A     66  66 100 MISG      30.20F FOG
BECKLEY          N/A     66  60  81 CALM      30.19F
BLUEFIELD      CLOUDY    68  58  70 CALM      30.21F
$$

VAZ002-007-008-TNZ017-027-036-066-071-310700
...SOUTHWEST VIRGINIA/EAST TENNESSEE...

CITY           SKY/WX    TMP DP  RH WIND       PRES   REMARKS
WISE*          MOCLDY    66  57  72 CALM      30.20F
JONESVILLE*    MOCLDY    66  64  94 CALM      30.16F
ABINGDON*      CLOUDY    69  61  76 CALM      30.16F
BRISTOL        LGT RAIN  68  63  84 CALM      30.14F
KNOXVILLE      MOCLDY    69  64  84 CALM      30.10S
OAK RIDGE      CLOUDY    72  65  78 CALM      30.13S
CROSSVILLE     MOCLDY    68  63  84 CALM      30.16S HAZE
NASHVILLE        N/A     70  65  84 S3        30.09F
$$

...KEY TO REMARKS...
VSB - VISIBILITY IN MILES
WCI - WIND CHILL INDEX
HX  - HEAT INDEX

$$


USA.gov is the U.S. government's official web portal to all federal, state and local government web resources and services.